• In Moldova, Republic
  • List of Countries
  • For 7 days
  • Water Temperature
  • Satellite Maps
  • Weather Map
  • Weather Widgets
  • user-avatar
    Login

    Hourly Weather Darwin

    Today, 22 January, Sunday

    Time Temperature Precipitation Wind Pressure Humidity
    00:00 +29°C° 0.1 mm 3 mps 757 mmHg 82%
    01:00 +28°C° 0.2 mm 3 mps 756 mmHg 82%
    02:00 +28°C° 0.2 mm 3 mps 756 mmHg 83%
    03:00 +28°C° 0 mm 3 mps 756 mmHg 84%
    04:00 +28°C° 0.3 mm 3 mps 756 mmHg 84%
    05:00 +28°C° 0.3 mm 4 mps 756 mmHg 84%
    06:00 +28°C° 0.3 mm 4 mps 756 mmHg 84%
    07:00 +29°C° 0 mm 5 mps 756 mmHg 77%
    08:00 +32°C° 0 mm 5 mps 757 mmHg 70%
    09:00 +34°C° 0 mm 5 mps 757 mmHg 62%
    10:00 +35°C° 0.3 mm 5 mps 756 mmHg 60%
    11:00 +36°C° 0.3 mm 5 mps 756 mmHg 58%
    12:00 +36°C° 0.3 mm 6 mps 755 mmHg 56%
    13:00 +36°C° 0.6 mm 6 mps 755 mmHg 57%
    14:00 +36°C° 0.6 mm 6 mps 755 mmHg 58%
    15:00 +36°C° 0.6 mm 7 mps 754 mmHg 59%
    16:00 +35°C° 0.1 mm 6 mps 754 mmHg 62%
    17:00 +34°C° 0.1 mm 6 mps 755 mmHg 66%
    18:00 +33°C° 0.1 mm 6 mps 755 mmHg 69%
    19:00 +33°C° 0 mm 6 mps 755 mmHg 72%
    20:00 +32°C° 0 mm 5 mps 755 mmHg 75%
    21:00 +30°C° 0 mm 5 mps 755 mmHg 78%
    22:00 +30°C° 1.7 mm 5 mps 755 mmHg 81%
    23:00 +29°C° 1.7 mm 5 mps 755 mmHg 84%

    Tomorrow, 23 January, Monday

    Time Temperature Precipitation Wind Pressure Humidity
    00:00 +29°C° 1.7 mm 5 mps 755 mmHg 87%
    01:00 +29°C° 0.4 mm 5 mps 755 mmHg 86%
    02:00 +29°C° 0.4 mm 5 mps 755 mmHg 86%
    03:00 +28°C° 0.4 mm 5 mps 754 mmHg 86%
    04:00 +28°C° 1.6 mm 5 mps 754 mmHg 86%
    05:00 +28°C° 1.6 mm 6 mps 754 mmHg 86%
    06:00 +28°C° 1.6 mm 6 mps 755 mmHg 86%
    07:00 +29°C° 0.1 mm 6 mps 755 mmHg 81%
    08:00 +30°C° 0.1 mm 6 mps 755 mmHg 77%
    09:00 +33°C° 0.1 mm 6 mps 755 mmHg 72%
    10:00 +34°C° 0.4 mm 6 mps 755 mmHg 67%
    11:00 +35°C° 0.4 mm 6 mps 755 mmHg 62%
    12:00 +36°C° 0.4 mm 7 mps 754 mmHg 57%
    13:00 +35°C° 0.9 mm 7 mps 754 mmHg 62%
    14:00 +34°C° 0.9 mm 7 mps 754 mmHg 66%
    15:00 +33°C° 0.9 mm 7 mps 753 mmHg 71%
    16:00 +33°C° 0.8 mm 7 mps 753 mmHg 74%
    17:00 +32°C° 0.8 mm 7 mps 753 mmHg 76%
    18:00 +30°C° 0.8 mm 6 mps 754 mmHg 78%
    19:00 +30°C° 1.1 mm 6 mps 754 mmHg 79%
    20:00 +29°C° 1.1 mm 6 mps 755 mmHg 80%
    21:00 +29°C° 1.1 mm 5 mps 755 mmHg 81%
    22:00 +29°C° 2.4 mm 6 mps 755 mmHg 84%
    23:00 +28°C° 2.4 mm 6 mps 755 mmHg 87%

    Day after tomorrow, 24 January, Tuesday

    Time Temperature Precipitation Wind Pressure Humidity
    00:00 +28°C° 2.4 mm 7 mps 756 mmHg 89%
    01:00 +28°C° 2.6 mm 7 mps 755 mmHg 90%
    02:00 +27°C° 2.6 mm 7 mps 755 mmHg 90%
    03:00 +27°C° 2.6 mm 7 mps 754 mmHg 91%
    04:00 +27°C° 1.6 mm 6 mps 754 mmHg 91%
    05:00 +27°C° 1.6 mm 6 mps 754 mmHg 91%
    06:00 +28°C° 1.6 mm 5 mps 754 mmHg 90%
    07:00 +29°C° 1.2 mm 5 mps 755 mmHg 86%
    08:00 +30°C° 1.2 mm 5 mps 755 mmHg 81%
    09:00 +32°C° 1.2 mm 6 mps 755 mmHg 76%
    10:00 +33°C° 0.7 mm 6 mps 755 mmHg 72%
    11:00 +34°C° 0.7 mm 6 mps 755 mmHg 67%
    12:00 +35°C° 0.7 mm 6 mps 754 mmHg 63%
    13:00 +35°C° 1 mm 7 mps 754 mmHg 62%
    14:00 +35°C° 1 mm 7 mps 753 mmHg 62%
    15:00 +35°C° 1 mm 7 mps 753 mmHg 62%
    16:00 +34°C° 0.4 mm 7 mps 753 mmHg 66%
    17:00 +33°C° 0.4 mm 7 mps 753 mmHg 71%
    18:00 +32°C° 0.4 mm 6 mps 753 mmHg 75%
    19:00 +32°C° 0.1 mm 6 mps 754 mmHg 76%
    20:00 +30°C° 0.1 mm 6 mps 754 mmHg 77%
    21:00 +30°C° 0.1 mm 6 mps 755 mmHg 79%
    22:00 +30°C° 1.1 mm 6 mps 755 mmHg 79%
    23:00 +29°C° 1.1 mm 6 mps 755 mmHg 79%

    25 January, Wednesday

    Time Temperature Precipitation Wind Pressure Humidity
    00:00 +29°C° 1.1 mm 6 mps 755 mmHg 80%
    01:00 +29°C° 1.5 mm 6 mps 754 mmHg 82%
    02:00 +28°C° 1.5 mm 6 mps 754 mmHg 84%
    03:00 +28°C° 1.5 mm 5 mps 753 mmHg 86%
    04:00 +28°C° 1.8 mm 5 mps 753 mmHg 87%
    05:00 +28°C° 1.8 mm 5 mps 753 mmHg 87%
    06:00 +28°C° 1.8 mm 5 mps 753 mmHg 88%
    07:00 +29°C° 1.6 mm 5 mps 754 mmHg 84%
    08:00 +30°C° 1.6 mm 4 mps 754 mmHg 80%
    09:00 +30°C° 1.6 mm 4 mps 754 mmHg 76%
    10:00 +32°C° 1.6 mm 5 mps 754 mmHg 73%
    11:00 +33°C° 1.6 mm 6 mps 753 mmHg 69%
    12:00 +34°C° 1.6 mm 7 mps 753 mmHg 66%
    13:00 +34°C° 1.7 mm 7 mps 752 mmHg 66%
    14:00 +34°C° 1.7 mm 8 mps 752 mmHg 67%
    15:00 +34°C° 1.7 mm 8 mps 751 mmHg 67%
    16:00 +33°C° 1.2 mm 8 mps 751 mmHg 70%
    17:00 +33°C° 1.2 mm 8 mps 751 mmHg 72%
    18:00 +32°C° 1.2 mm 7 mps 751 mmHg 75%
    19:00 +30°C° 1 mm 7 mps 752 mmHg 77%
    20:00 +30°C° 1 mm 7 mps 752 mmHg 79%
    21:00 +30°C° 1 mm 7 mps 752 mmHg 81%
    22:00 +29°C° 2 mm 7 mps 752 mmHg 84%
    23:00 +29°C° 2 mm 8 mps 752 mmHg 87%

    26 January, Thursday

    Time Temperature Precipitation Wind Pressure Humidity
    00:00 +28°C° 2 mm 8 mps 752 mmHg 90%
    01:00 +28°C° 2.3 mm 8 mps 751 mmHg 91%
    02:00 +28°C° 2.3 mm 8 mps 750 mmHg 92%
    03:00 +28°C° 2.3 mm 8 mps 750 mmHg 92%
    04:00 +28°C° 2.5 mm 8 mps 750 mmHg 93%
    05:00 +28°C° 2.5 mm 7 mps 750 mmHg 93%
    06:00 +28°C° 2.5 mm 7 mps 750 mmHg 94%
    07:00 +28°C° 3.2 mm 7 mps 751 mmHg 92%
    08:00 +29°C° 3.2 mm 7 mps 751 mmHg 90%
    09:00 +29°C° 3.2 mm 6 mps 751 mmHg 89%
    10:00 +30°C° 2.4 mm 7 mps 751 mmHg 88%
    11:00 +30°C° 2.4 mm 7 mps 751 mmHg 87%
    12:00 +31°C° 2.4 mm 8 mps 750 mmHg 86%
    13:00 +31°C° 2.2 mm 8 mps 750 mmHg 87%
    14:00 +29°C° 2.2 mm 8 mps 749 mmHg 89%
    15:00 +29°C° 2.2 mm 8 mps 749 mmHg 90%
    16:00 +29°C° 2.7 mm 7 mps 749 mmHg 91%
    17:00 +28°C° 2.7 mm 7 mps 749 mmHg 92%
    18:00 +28°C° 2.7 mm 6 mps 749 mmHg 93%
    19:00 +28°C° 3.2 mm 7 mps 750 mmHg 93%
    20:00 +28°C° 3.2 mm 7 mps 750 mmHg 94%
    21:00 +28°C° 3.2 mm 7 mps 751 mmHg 94%
    22:00 +28°C° 5.6 mm 7 mps 751 mmHg 94%
    23:00 +28°C° 5.6 mm 8 mps 750 mmHg 94%

    27 January, Friday

    Time Temperature Precipitation Wind Pressure Humidity
    00:00 +28°C° 5.6 mm 8 mps 750 mmHg 93%
    01:00 +28°C° 4.7 mm 8 mps 750 mmHg 93%
    02:00 +28°C° 4.7 mm 9 mps 749 mmHg 93%
    03:00 +28°C° 4.7 mm 9 mps 749 mmHg 93%
    04:00 +28°C° 3.8 mm 9 mps 749 mmHg 92%
    05:00 +28°C° 3.8 mm 9 mps 750 mmHg 92%
    06:00 +28°C° 3.8 mm 8 mps 750 mmHg 92%
    07:00 +28°C° 2.9 mm 8 mps 751 mmHg 91%
    08:00 +29°C° 2.9 mm 8 mps 751 mmHg 90%
    09:00 +29°C° 2.9 mm 8 mps 752 mmHg 89%
    10:00 +29°C° 1.8 mm 8 mps 751 mmHg 88%
    11:00 +31°C° 1.8 mm 8 mps 751 mmHg 86%
    12:00 +31°C° 1.8 mm 9 mps 751 mmHg 85%
    13:00 +31°C° 3.1 mm 8 mps 751 mmHg 86%
    14:00 +31°C° 3.1 mm 8 mps 751 mmHg 87%
    15:00 +29°C° 3.1 mm 8 mps 751 mmHg 88%
    16:00 +29°C° 3.8 mm 8 mps 751 mmHg 89%
    17:00 +28°C° 3.8 mm 8 mps 752 mmHg 90%
    18:00 +28°C° 3.8 mm 7 mps 752 mmHg 91%
    19:00 +28°C° 2.7 mm 7 mps 753 mmHg 91%
    20:00 +28°C° 2.7 mm 7 mps 753 mmHg 91%
    21:00 +28°C° 2.7 mm 7 mps 754 mmHg 91%
    22:00 +28°C° 2.2 mm 7 mps 754 mmHg 91%
    23:00 +28°C° 2.2 mm 6 mps 754 mmHg 90%
    Show more